Regional Weather Roundup
Issued by NWS

Home | Current Version | Previous Version | Text Only | Print | Product List | Glossary On
Versions: 1 2 3 4 5 6 7 8 9 10 11 12 13 14 15 16 17 18 19 20 21 22 23 24 25 26 27 28 29 30 31 32 33 34 35 36 37 38 39 40 41 42 43 44 45 46 47 48 49 50
000
ASUS43 KFSD 221502
RWRSD

WEATHER ROUNDUP FOR SOUTH DAKOTA
NATIONAL WEATHER SERVICE SIOUX FALLS SD
1000 AM CDT SUN OCT 22 2017

NOTE: "FAIR" INDICATES FEW OR NO CLOUDS BELOW 12,000 FEET WITH NO
SIGNIFICANT WEATHER AND/OR OBSTRUCTIONS TO VISIBILITY.


SDZ001>005-009-010-012>017-221600-
NORTHWEST AND NORTH CENTRAL SOUTH DAKOTA

CITY           SKY/WX    TMP DP  RH WIND       PRES   REMARKS
BUFFALO          N/A     46  20  35 SW13      29.80R
MOBRIDGE       SUNNY     42  30  62 S7        29.89F
$$

SDZ012>016-024>037-041>051-057-063-072>074-221600-
SOUTHWEST AND SOUTH CENTRAL SOUTH DAKOTA

CITY           SKY/WX    TMP DP  RH WIND       PRES   REMARKS
RAPID CTY ARPT CLOUDY    41  19  41 VRB5      29.94F
PIERRE         SUNNY     41  31  67 SE5       29.96F
CUSTER         CLOUDY    40  18  41 W10G16    29.99S
ELLSWORTH AFB  CLOUDY    48  19  31 S8        29.92F
PHILIP         SUNNY     37  28  70 SW3       29.98S
PINE RIDGE     SUNNY     42  25  50 SW12      30.04R
SPEARFISH      FAIR      54  19  26 SW17      29.90F
WINNER         FAIR      45  27  49 SW16      30.02R
$$

SDZ004>011-016>023-039-040-221600-
NORTHEAST SOUTH DAKOTA

CITY           SKY/WX    TMP DP  RH WIND       PRES   REMARKS
ABERDEEN       SUNNY     40  35  83 S9        29.97R
WATERTOWN      SUNNY     43  35  73 SW9       29.98F
BROOKINGS      SUNNY     43  36  76 S6        30.03R
SISSETON         N/A     50  33  52 W16       29.94S
$$

SDZ017-020-022-023-036>040-048>070-221600-
SOUTHEAST SOUTH DAKOTA

CITY           SKY/WX    TMP DP  RH WIND       PRES   REMARKS
SIOUX FALLS    MOSUNNY   49  37  63 SW3       30.05F
HURON          SUNNY     46  33  60 S8        30.01S
CHAMBERLAIN    SUNNY     49  35  59 S8        30.01S
MITCHELL       SUNNY     48  34  58 SW8       30.04S
YANKTON        SUNNY     45  38  76 CALM      30.07S
$$

ABBREVIATIONS USED IN REMARKS
   TC - TEMPERATURE IN CELSIUS
  WCI - WIND CHILL INDEX
   HX - HEAT INDEX
  VSB - VISIBILITY





USA.gov is the U.S. government's official web portal to all federal, state and local government web resources and services.